Time,TemperatureF,DewpointF,PressureIn,WindDirection,WindDirectionDegrees,WindSpeedMPH,WindSpeedGustMPH,Humidity,HourlyPrecipIn,Conditions,Clouds,dailyrainin,SoftwareType,DateUTC
2013-07-26 00:03:00,58.6,56.3,30.05,NE,40,2.0,15.0,92,0.00,RA,,0.00,WeatherDisplay:10.37,2013-07-26 04:03:00,
2013-07-26 00:13:00,58.7,56.4,30.05,ENE,58,3.0,7.0,92,0.00,-RA,,0.00,WeatherDisplay:10.37,2013-07-26 04:13:00,
2013-07-26 00:23:00,58.9,56.3,30.05,NE,39,1.0,12.0,91,0.00,-RA,,0.00,WeatherDisplay:10.37,2013-07-26 04:23:00,
2013-07-26 00:33:00,59.0,56.4,30.04,NE,53,1.0,12.0,91,0.00,-RA,,0.00,WeatherDisplay:10.37,2013-07-26 04:33:00,
2013-07-26 00:43:00,59.2,56.6,30.04,NE,52,1.0,10.0,91,0.00,-RA,,0.00,WeatherDisplay:10.37,2013-07-26 04:43:00,
2013-07-26 00:53:00,59.2,56.6,30.04,NE,42,2.0,9.0,91,0.00,-RA,,0.00,WeatherDisplay:10.37,2013-07-26 04:53:00,
2013-07-26 01:03:00,59.3,56.7,30.04,ENE,69,3.0,10.0,91,0.00,-RA,,0.00,WeatherDisplay:10.37,2013-07-26 05:03:00,
2013-07-26 01:13:00,59.3,56.7,30.04,ENE,70,1.0,8.0,91,0.00,-RA,,0.00,WeatherDisplay:10.37,2013-07-26 05:13:00,
2013-07-26 01:23:00,59.3,56.7,30.03,NE,44,2.0,13.0,91,0.00,-RA,,0.00,WeatherDisplay:10.37,2013-07-26 05:23:00,
2013-07-26 01:33:00,59.3,57.0,30.03,East,83,0.0,9.0,92,0.00,-RA,,0.00,WeatherDisplay:10.37,2013-07-26 05:33:00,
2013-07-26 01:43:00,59.2,57.2,30.03,ENE,67,2.0,9.0,93,0.00,-RA,,0.00,WeatherDisplay:10.37,2013-07-26 05:43:00,
2013-07-26 01:53:00,59.0,57.0,30.03,ENE,59,2.0,12.0,93,0.01,-RA,,0.01,WeatherDisplay:10.37,2013-07-26 05:53:00,
2013-07-26 02:03:00,58.9,57.2,30.03,ENE,59,2.0,9.0,94,0.01,-RA,,0.02,WeatherDisplay:10.37,2013-07-26 06:03:00,
2013-07-26 02:13:00,58.9,57.2,30.03,NE,40,1.0,9.0,94,0.00,-RA,,0.02,WeatherDisplay:10.37,2013-07-26 06:13:00,
2013-07-26 02:23:00,58.9,57.5,30.03,NNE,19,2.0,7.0,95,0.00,-RA,,0.02,WeatherDisplay:10.37,2013-07-26 06:23:00,
2013-07-26 02:33:00,58.7,57.3,30.03,NE,36,0.0,7.0,95,0.01,-RA,,0.03,WeatherDisplay:10.37,2013-07-26 06:33:00,
2013-07-26 02:43:00,58.6,57.2,30.03,NE,49,5.0,9.0,95,0.01,-RA,,0.04,WeatherDisplay:10.37,2013-07-26 06:43:00,
2013-07-26 02:53:00,58.6,57.5,30.02,NE,37,2.0,7.0,96,0.01,-RA,,0.05,WeatherDisplay:10.37,2013-07-26 06:53:00,
2013-07-26 03:03:00,58.6,57.5,30.02,ENE,59,2.0,12.0,96,0.01,RA,,0.06,WeatherDisplay:10.37,2013-07-26 07:03:00,
2013-07-26 03:13:00,58.4,57.3,30.02,NE,44,3.0,11.0,96,0.01,RA,,0.07,WeatherDisplay:10.37,2013-07-26 07:13:00,
2013-07-26 03:23:00,58.6,57.5,30.01,NE,39,0.0,7.0,96,0.01,RA,,0.08,WeatherDisplay:10.37,2013-07-26 07:23:00,
2013-07-26 03:33:00,58.6,57.8,30.01,NE,43,2.0,8.0,97,0.00,OVC,,0.08,WeatherDisplay:10.37,2013-07-26 07:33:00,
2013-07-26 03:43:00,58.6,57.8,30.01,NE,51,2.0,10.0,97,0.01,RA,,0.09,WeatherDisplay:10.37,2013-07-26 07:43:00,
2013-07-26 03:53:00,58.7,57.9,30.00,NE,38,3.0,10.0,97,0.00,OVC,,0.09,WeatherDisplay:10.37,2013-07-26 07:53:00,
2013-07-26 04:03:00,58.7,57.9,30.00,NE,53,6.0,12.0,97,0.00,OVC,,0.09,WeatherDisplay:10.37,2013-07-26 08:03:00,
2013-07-26 04:13:00,58.7,57.9,30.00,NE,53,5.0,10.0,97,0.01,RA,,0.10,WeatherDisplay:10.37,2013-07-26 08:13:00,
2013-07-26 04:23:00,58.8,58.0,30.00,ENE,59,2.0,10.0,97,0.00,-RA,,0.10,WeatherDisplay:10.37,2013-07-26 08:23:00,
2013-07-26 04:33:00,58.9,58.1,30.00,ENE,59,3.0,12.0,97,0.01,-RA,,0.11,WeatherDisplay:10.37,2013-07-26 08:33:00,
2013-07-26 04:43:00,58.9,58.1,30.00,NE,45,2.0,12.0,97,0.01,-RA,,0.12,WeatherDisplay:10.37,2013-07-26 08:43:00,
2013-07-26 04:53:00,58.9,58.1,30.00,ENE,60,1.0,10.0,97,0.01,-RA,,0.13,WeatherDisplay:10.37,2013-07-26 08:53:00,
2013-07-26 05:03:00,58.9,58.1,30.00,NE,44,1.0,9.0,97,0.00,OVC,,0.13,WeatherDisplay:10.37,2013-07-26 09:03:00,
2013-07-26 05:13:00,59.0,58.2,30.00,NE,49,1.0,12.0,97,0.01,RA,,0.14,WeatherDisplay:10.37,2013-07-26 09:13:00,
2013-07-26 05:23:00,59.0,58.2,29.99,NE,51,0.0,12.0,97,0.00,-RA,,0.14,WeatherDisplay:10.37,2013-07-26 09:23:00,
2013-07-26 05:33:00,59.0,58.2,30.00,NE,43,1.0,10.0,97,0.01,-RA,,0.15,WeatherDisplay:10.37,2013-07-26 09:33:00,
2013-07-26 05:43:00,59.0,58.2,30.00,ENE,57,0.0,10.0,97,0.01,-RA,,0.16,WeatherDisplay:10.37,2013-07-26 09:43:00,
2013-07-26 05:53:00,59.0,58.2,29.99,NE,55,3.0,13.0,97,0.01,-RA,,0.17,WeatherDisplay:10.37,2013-07-26 09:53:00,
2013-07-26 06:03:00,59.0,58.2,29.99,NE,54,1.0,14.0,97,0.04,-RA,,0.21,WeatherDisplay:10.37,2013-07-26 10:03:00,
2013-07-26 06:13:00,59.0,58.2,29.99,ENE,61,0.0,9.0,97,0.01,RA,,0.22,WeatherDisplay:10.37,2013-07-26 10:13:00,
2013-07-26 06:23:00,59.0,58.4,29.99,NE,39,1.0,12.0,98,0.02,RA,,0.24,WeatherDisplay:10.37,2013-07-26 10:23:00,
2013-07-26 06:33:00,59.0,58.4,29.99,NE,49,2.0,14.0,98,0.02,RA,,0.26,WeatherDisplay:10.37,2013-07-26 10:33:00,
2013-07-26 06:43:00,59.0,58.4,29.99,NNE,31,2.0,10.0,98,0.01,RA,,0.27,WeatherDisplay:10.37,2013-07-26 10:43:00,
2013-07-26 06:53:00,59.2,58.6,29.99,NE,39,5.0,10.0,98,0.00,OVC,,0.27,WeatherDisplay:10.37,2013-07-26 10:53:00,
2013-07-26 07:03:00,59.2,58.6,29.99,NE,49,0.0,9.0,98,0.01,RA,,0.28,WeatherDisplay:10.37,2013-07-26 11:03:00,
2013-07-26 07:13:00,59.2,58.4,29.99,NE,54,0.0,10.0,97,0.00,OVC,,0.28,WeatherDisplay:10.37,2013-07-26 11:13:00,
2013-07-26 07:23:00,59.3,58.4,29.99,NE,53,2.0,12.0,97,0.01,RA,,0.29,WeatherDisplay:10.37,2013-07-26 11:23:00,
2013-07-26 07:33:00,59.5,58.6,29.99,NE,53,5.0,12.0,97,0.02,RA,,0.31,WeatherDisplay:10.37,2013-07-26 11:33:00,
2013-07-26 07:43:00,59.5,58.6,29.99,ENE,59,3.0,12.0,97,0.00,OVC,,0.31,WeatherDisplay:10.37,2013-07-26 11:43:00,
2013-07-26 07:53:00,59.5,58.6,29.99,NE,53,2.0,13.0,97,0.00,OVC,,0.31,WeatherDisplay:10.37,2013-07-26 11:53:00,
2013-07-26 08:03:00,59.7,58.8,29.99,NNE,21,1.0,12.0,97,0.00,OVC,,0.31,WeatherDisplay:10.37,2013-07-26 12:03:00,
2013-07-26 08:13:00,59.7,58.8,29.99,NNE,30,2.0,9.0,97,0.00,-RA,,0.31,WeatherDisplay:10.37,2013-07-26 12:13:00,
2013-07-26 08:23:00,59.7,58.8,29.99,NE,53,2.0,12.0,97,0.00,-RA,,0.31,WeatherDisplay:10.37,2013-07-26 12:23:00,
2013-07-26 08:33:00,59.7,58.8,29.99,NE,49,2.0,12.0,97,0.00,-RA,,0.31,WeatherDisplay:10.37,2013-07-26 12:33:00,
2013-07-26 08:43:00,59.7,58.8,29.99,NE,43,0.0,12.0,97,0.00,-RA,,0.31,WeatherDisplay:10.37,2013-07-26 12:43:00,
2013-07-26 08:53:00,59.8,58.7,29.98,NE,42,0.0,12.0,96,0.00,-RA,,0.31,WeatherDisplay:10.37,2013-07-26 12:53:00,
2013-07-26 09:03:00,60.0,58.9,29.98,East,92,6.0,13.0,96,0.00,-RA,,0.31,WeatherDisplay:10.37,2013-07-26 13:03:00,
2013-07-26 09:13:00,60.1,58.7,29.98,NNE,33,3.0,14.0,95,0.00,-RA,,0.31,WeatherDisplay:10.37,2013-07-26 13:13:00,
2013-07-26 09:23:00,60.1,58.7,29.98,NNE,24,3.0,12.0,95,0.00,-RA,,0.31,WeatherDisplay:10.37,2013-07-26 13:23:00,
2013-07-26 09:33:00,60.3,58.9,29.98,NE,49,6.0,16.0,95,0.01,-RA,,0.32,WeatherDisplay:10.37,2013-07-26 13:33:00,
2013-07-26 09:43:00,60.6,58.9,29.98,NE,34,1.0,16.0,94,0.00,-RA,,0.32,WeatherDisplay:10.37,2013-07-26 13:43:00,
2013-07-26 09:53:00,60.9,59.2,29.98,NE,38,2.0,16.0,94,0.00,-RA,,0.32,WeatherDisplay:10.37,2013-07-26 13:53:00,
2013-07-26 10:03:00,61.1,59.4,29.98,NE,37,3.0,16.0,94,0.00,OVC,,0.32,WeatherDisplay:10.37,2013-07-26 14:03:00,
2013-07-26 10:13:00,61.2,59.2,29.98,NNE,20,3.0,16.0,93,0.00,OVC,,0.32,WeatherDisplay:10.37,2013-07-26 14:13:00,
2013-07-26 10:23:00,61.2,58.9,29.99,NE,41,1.0,16.0,92,0.00,-RA,,0.32,WeatherDisplay:10.37,2013-07-26 14:23:00,
2013-07-26 10:33:00,61.4,59.1,29.99,NNW,347,2.0,16.0,92,0.00,-RA,,0.32,WeatherDisplay:10.37,2013-07-26 14:33:00,
2013-07-26 10:43:00,61.5,59.5,29.99,North,11,1.0,16.0,93,0.00,-RA,,0.32,WeatherDisplay:10.37,2013-07-26 14:43:00,
2013-07-26 10:53:00,61.7,59.4,29.98,NE,54,2.0,16.0,92,0.00,-RA,,0.32,WeatherDisplay:10.37,2013-07-26 14:53:00,
2013-07-26 11:03:00,62.0,59.6,29.98,NE,42,3.0,16.0,92,0.00,-RA,,0.32,WeatherDisplay:10.37,2013-07-26 15:03:00,
2013-07-26 11:13:00,62.3,60.2,29.98,NE,41,3.0,16.0,93,0.01,-RA,,0.33,WeatherDisplay:10.37,2013-07-26 15:13:00,
2013-07-26 11:23:00,62.5,60.4,29.98,NE,52,0.0,16.0,93,0.01,-RA,,0.34,WeatherDisplay:10.37,2013-07-26 15:23:00,
2013-07-26 11:33:00,63.0,61.2,29.97,North,10,1.0,16.0,94,0.00,-RA,,0.34,WeatherDisplay:10.37,2013-07-26 15:33:00,
2013-07-26 11:43:00,63.1,61.0,29.97,NNW,346,1.0,16.0,93,0.00,-RA,,0.34,WeatherDisplay:10.37,2013-07-26 15:43:00,
2013-07-26 11:53:00,63.3,60.9,29.97,North,349,3.0,16.0,92,0.00,-RA,,0.34,WeatherDisplay:10.37,2013-07-26 15:53:00,
2013-07-26 12:03:00,63.5,61.1,29.97,NNE,15,0.0,16.0,92,0.00,OVC,,0.34,WeatherDisplay:10.37,2013-07-26 16:03:00,
2013-07-26 12:13:00,63.9,61.5,29.97,NE,45,2.0,16.0,92,0.01,RA,,0.35,WeatherDisplay:10.37,2013-07-26 16:13:00,
2013-07-26 12:23:00,64.2,61.2,29.97,NE,56,6.0,16.0,90,0.00,OVC,,0.35,WeatherDisplay:10.37,2013-07-26 16:23:00,
2013-07-26 12:33:00,65.1,61.8,29.97,ENE,64,3.0,16.0,89,0.00,OVC,,0.35,WeatherDisplay:10.37,2013-07-26 16:33:00,
2013-07-26 12:43:00,65.6,62.6,29.97,NE,39,1.0,16.0,90,0.00,OVC,,0.35,WeatherDisplay:10.37,2013-07-26 16:43:00,
2013-07-26 12:53:00,66.4,62.7,29.96,NE,51,3.0,16.0,88,0.00,OVC,,0.35,WeatherDisplay:10.37,2013-07-26 16:53:00,
2013-07-26 13:03:00,66.7,63.0,29.96,ENE,69,3.0,16.0,88,0.00,BKN,,0.35,WeatherDisplay:10.37,2013-07-26 17:03:00,
2013-07-26 13:13:00,66.8,62.5,29.96,North,8,0.0,16.0,86,0.00,BKN,,0.35,WeatherDisplay:10.37,2013-07-26 17:13:00,
2013-07-26 13:23:00,67.1,63.1,29.96,North,4,0.0,16.0,87,0.00,BKN,,0.35,WeatherDisplay:10.37,2013-07-26 17:23:00,
2013-07-26 13:33:00,67.7,63.0,29.95,North,355,0.0,16.0,85,0.00,BKN,,0.35,WeatherDisplay:10.37,2013-07-26 17:33:00,
2013-07-26 13:43:00,68.4,63.0,29.95,NE,43,5.0,16.0,83,0.00,BKN,,0.35,WeatherDisplay:10.37,2013-07-26 17:43:00,
2013-07-26 13:53:00,68.7,63.7,29.95,NNE,26,0.0,16.0,84,0.00,BKN,,0.35,WeatherDisplay:10.37,2013-07-26 17:53:00,
2013-07-26 14:03:00,69.1,63.7,29.95,NNE,14,0.0,16.0,83,0.00,BKN,,0.35,WeatherDisplay:10.37,2013-07-26 18:03:00,
2013-07-26 14:13:00,69.6,63.5,29.95,NE,46,2.0,16.0,81,0.00,OVC,,0.35,WeatherDisplay:10.37,2013-07-26 18:13:00,
2013-07-26 14:23:00,69.4,63.7,29.95,WNW,300,1.0,16.0,82,0.00,OVC,,0.35,WeatherDisplay:10.37,2013-07-26 18:23:00,
2013-07-26 14:33:00,69.2,63.1,29.95,NW,311,1.0,16.0,81,0.00,OVC,,0.35,WeatherDisplay:10.37,2013-07-26 18:33:00,
2013-07-26 14:43:00,69.4,63.7,29.95,NNW,344,0.0,16.0,82,0.00,OVC,,0.35,WeatherDisplay:10.37,2013-07-26 18:43:00,
2013-07-26 14:53:00,70.2,63.0,29.95,NNW,331,0.0,16.0,78,0.00,OVC,,0.35,WeatherDisplay:10.37,2013-07-26 18:53:00,
2013-07-26 15:03:00,70.8,63.2,29.96,NW,312,0.0,16.0,77,0.00,OVC,,0.35,WeatherDisplay:10.37,2013-07-26 19:03:00,
2013-07-26 15:13:00,70.9,63.3,29.96,NW,311,1.0,16.0,77,0.00,OVC,,0.35,WeatherDisplay:10.37,2013-07-26 19:13:00,
2013-07-26 15:23:00,70.9,63.7,29.96,WNW,300,0.0,16.0,78,0.00,OVC,,0.35,WeatherDisplay:10.37,2013-07-26 19:23:00,
2013-07-26 15:33:00,71.1,64.3,29.96,NW,320,0.0,16.0,79,0.00,OVC,,0.35,WeatherDisplay:10.37,2013-07-26 19:33:00,
2013-07-26 15:43:00,70.3,63.5,29.96,WNW,286,0.0,16.0,79,0.00,OVC,,0.35,WeatherDisplay:10.37,2013-07-26 19:43:00,
2013-07-26 15:53:00,69.8,62.6,29.95,WNW,291,6.0,16.0,78,0.00,OVC,,0.35,WeatherDisplay:10.37,2013-07-26 19:53:00,
2013-07-26 16:03:00,69.3,63.2,29.95,WNW,289,0.0,16.0,81,0.00,OVC,,0.35,WeatherDisplay:10.37,2013-07-26 20:03:00,
2013-07-26 16:13:00,69.3,62.8,29.95,WNW,293,2.0,16.0,80,0.00,OVC,,0.35,WeatherDisplay:10.37,2013-07-26 20:13:00,
2013-07-26 16:23:00,69.2,62.8,29.95,WNW,290,0.0,16.0,80,0.00,OVC,,0.35,WeatherDisplay:10.37,2013-07-26 20:23:00,
2013-07-26 16:33:00,69.7,62.9,29.96,West,279,1.0,16.0,79,0.00,OVC,,0.35,WeatherDisplay:10.37,2013-07-26 20:33:00,
2013-07-26 16:43:00,69.4,61.9,29.96,NW,316,2.0,16.0,77,0.00,OVC,,0.35,WeatherDisplay:10.37,2013-07-26 20:43:00,
2013-07-26 16:53:00,69.2,61.7,29.96,NW,305,1.0,16.0,77,0.00,OVC,,0.35,WeatherDisplay:10.37,2013-07-26 20:53:00,
2013-07-26 17:03:00,69.1,61.2,29.96,NW,306,0.0,16.0,76,0.00,OVC,,0.35,WeatherDisplay:10.37,2013-07-26 21:03:00,
2013-07-26 17:13:00,68.7,60.5,29.96,WNW,286,0.0,16.0,75,0.00,OVC,,0.35,WeatherDisplay:10.37,2013-07-26 21:13:00,
2013-07-26 17:23:00,68.7,60.4,29.96,WNW,301,1.0,16.0,75,0.00,OVC,,0.35,WeatherDisplay:10.37,2013-07-26 21:23:00,
2013-07-26 17:33:00,68.4,60.5,29.96,North,0,0.0,16.0,76,0.00,OVC,,0.35,WeatherDisplay:10.37,2013-07-26 21:33:00,
2013-07-26 17:43:00,68.4,60.5,29.96,West,277,0.0,16.0,76,0.00,OVC,,0.35,WeatherDisplay:10.37,2013-07-26 21:43:00,
2013-07-26 17:53:00,67.9,59.7,29.96,West,270,0.0,16.0,75,0.00,OVC,,0.35,WeatherDisplay:10.37,2013-07-26 21:53:00,
2013-07-26 18:03:00,67.6,59.8,29.96,WSW,242,0.0,16.0,76,0.00,OVC,,0.35,WeatherDisplay:10.37,2013-07-26 22:03:00,
2013-07-26 18:13:00,67.4,60.3,29.96,WSW,252,0.0,16.0,78,0.00,OVC,,0.35,WeatherDisplay:10.37,2013-07-26 22:13:00,
2013-07-26 18:23:00,67.2,60.1,29.96,WSW,253,0.0,16.0,78,0.00,OVC,,0.35,WeatherDisplay:10.37,2013-07-26 22:23:00,
2013-07-26 18:33:00,67.1,59.6,29.97,NW,309,0.0,16.0,77,0.00,OVC,,0.35,WeatherDisplay:10.37,2013-07-26 22:33:00,
2013-07-26 18:43:00,67.1,60.0,29.97,West,259,0.0,16.0,78,0.00,OVC,,0.35,WeatherDisplay:10.37,2013-07-26 22:43:00,
2013-07-26 18:53:00,67.1,59.6,29.96,NNW,341,0.0,16.0,77,0.00,OVC,,0.35,WeatherDisplay:10.37,2013-07-26 22:53:00,
2013-07-26 19:03:00,67.1,59.6,29.96,WNW,284,0.0,16.0,77,0.00,OVC,,0.35,WeatherDisplay:10.37,2013-07-26 23:03:00,
2013-07-26 19:13:00,67.1,59.6,29.96,WNW,298,0.0,16.0,77,0.00,BKN,,0.35,WeatherDisplay:10.37,2013-07-26 23:13:00,
2013-07-26 19:23:00,67.1,59.6,29.96,WNW,290,0.0,16.0,77,0.00,BKN,,0.35,WeatherDisplay:10.37,2013-07-26 23:23:00,
2013-07-26 19:33:00,66.9,59.5,29.97,NW,314,1.0,16.0,77,0.00,BKN,,0.35,WeatherDisplay:10.37,2013-07-26 23:33:00,
2013-07-26 19:43:00,66.9,59.5,29.97,NNW,334,0.0,16.0,77,0.00,BKN,,0.35,WeatherDisplay:10.37,2013-07-26 23:43:00,
2013-07-26 19:53:00,67.1,58.9,29.97,NW,313,1.0,16.0,75,0.00,BKN,,0.35,WeatherDisplay:10.37,2013-07-26 23:53:00,
2013-07-26 20:03:00,67.1,59.3,29.97,WNW,298,0.0,16.0,76,0.00,BKN,,0.35,WeatherDisplay:10.37,2013-07-27 00:03:00,
2013-07-26 20:13:00,67.1,59.3,29.97,West,275,0.0,16.0,76,0.00,BKN,,0.35,WeatherDisplay:10.37,2013-07-27 00:13:00,
2013-07-26 20:23:00,66.7,58.5,29.97,West,264,0.0,16.0,75,0.00,BKN,,0.35,WeatherDisplay:10.37,2013-07-27 00:23:00,
2013-07-26 20:33:00,66.6,58.8,29.97,WNW,297,0.0,16.0,76,0.00,BKN,,0.35,WeatherDisplay:10.37,2013-07-27 00:33:00,
2013-07-26 20:43:00,66.4,59.0,29.97,WNW,284,0.0,16.0,77,0.00,BKN,,0.35,WeatherDisplay:10.37,2013-07-27 00:43:00,
2013-07-26 20:53:00,66.2,58.8,29.98,West,271,0.0,16.0,77,0.00,BKN,,0.35,WeatherDisplay:10.37,2013-07-27 00:53:00,
2013-07-26 21:03:00,66.1,58.7,29.98,SW,226,0.0,16.0,77,0.00,BKN,,0.35,WeatherDisplay:10.37,2013-07-27 01:03:00,
2013-07-26 21:13:00,66.1,58.7,29.98,SW,235,0.0,16.0,77,0.00,SCT,,0.35,WeatherDisplay:10.37,2013-07-27 01:13:00,
2013-07-26 21:23:00,65.9,58.8,29.99,WSW,241,0.0,16.0,78,0.00,SCT,,0.35,WeatherDisplay:10.37,2013-07-27 01:23:00,
2013-07-26 21:33:00,65.7,59.0,29.99,WSW,239,0.0,16.0,79,0.00,SCT,,0.35,WeatherDisplay:10.37,2013-07-27 01:33:00,
2013-07-26 21:43:00,65.6,58.6,29.99,WSW,251,0.0,16.0,78,0.00,SCT,,0.35,WeatherDisplay:10.37,2013-07-27 01:43:00,
2013-07-26 21:53:00,65.2,58.5,29.99,WSW,245,0.0,16.0,79,0.00,SCT,,0.35,WeatherDisplay:10.37,2013-07-27 01:53:00,
2013-07-26 22:03:00,64.9,58.6,29.99,WSW,239,0.0,16.0,80,0.00,SCT,,0.35,WeatherDisplay:10.37,2013-07-27 02:03:00,
2013-07-26 22:13:00,64.8,58.8,29.99,WSW,250,0.0,16.0,81,0.00,CLR,,0.35,WeatherDisplay:10.37,2013-07-27 02:13:00,
2013-07-26 22:23:00,64.4,58.8,29.99,WNW,283,0.0,16.0,82,0.00,CLR,,0.35,WeatherDisplay:10.37,2013-07-27 02:23:00,
2013-07-26 22:33:00,64.0,59.1,29.99,West,265,0.0,16.0,84,0.00,CLR,,0.35,WeatherDisplay:10.37,2013-07-27 02:33:00,
2013-07-26 22:43:00,63.5,58.9,29.99,West,267,0.0,16.0,85,0.00,CLR,,0.35,WeatherDisplay:10.37,2013-07-27 02:43:00,
2013-07-26 22:53:00,63.0,59.1,30.00,West,272,0.0,16.0,87,0.00,CLR,,0.35,WeatherDisplay:10.37,2013-07-27 02:53:00,
2013-07-26 23:03:00,62.8,59.2,30.00,West,270,0.0,16.0,88,0.00,CLR,,0.35,WeatherDisplay:10.37,2013-07-27 03:03:00,
2013-07-26 23:13:00,62.5,58.9,30.00,West,274,0.0,16.0,88,0.00,CLR,,0.35,WeatherDisplay:10.37,2013-07-27 03:13:00,
2013-07-26 23:23:00,62.3,59.0,30.00,West,267,0.0,16.0,89,0.00,CLR,,0.35,WeatherDisplay:10.37,2013-07-27 03:23:00,
2013-07-26 23:33:00,62.2,58.9,30.00,WSW,245,0.0,16.0,89,0.00,CLR,,0.35,WeatherDisplay:10.37,2013-07-27 03:33:00,
2013-07-26 23:43:00,62.0,58.7,30.00,WSW,244,0.0,16.0,89,0.00,CLR,,0.35,WeatherDisplay:10.37,2013-07-27 03:43:00,
2013-07-26 23:53:00,61.9,58.9,30.00,SW,229,0.0,16.0,90,0.00,CLR,,0.35,WeatherDisplay:10.37,2013-07-27 03:53:00,